QPF
0.04 0.04 0.03 0.05 0.06 0.06 0.06 0.06 0.04 0.03 0.02 0.01 0.01 0.02 0.03 0.03 0.04 0.05 0.04 0.04 0.04 0.03 0.03 0.03 0.03 0.02 0.02 0.02 0.01 0.01 0.01 0.01 0.01 0.02 0.02 0.02 0.03 0.03
0.07 0.06 0.05 0.05 0.06 0.07 0.08 0.08 0.08 0.07 0.05 0.04 0.02 0.02 0.02 0.04 0.06 0.06 0.05 0.04 0.03 0.03 0.03 0.03 0.03 0.03 0.03 0.02 0.02 0.02 0.02 0.02 0.02 0.02 0.02 0.02 0.02 0.02
0.12 0.10 0.09 0.09 0.08 0.09 0.09 0.08 0.07 0.07 0.06 0.04 0.03 0.02 0.02 0.03 0.05 0.06 0.05 0.04 0.04 0.03 0.02 0.02 0.02 0.02 0.03 0.03 0.03 0.04 0.04 0.04 0.04 0.04 0.04 0.03 0.03 0.03
0.12 0.12 0.11 0.10 0.07 0.07 0.07 0.06 0.05 0.05 0.05 0.04 0.04 0.03 0.03 0.03 0.04 0.05 0.04 0.03 0.03 0.03 0.02 0.01 0.01 0.02 0.02 0.02 0.02 0.02 0.02 0.02 0.03 0.03 0.04 0.05 0.06 0.06
0.14 0.12 0.09 0.09 0.07 0.07 0.09 0.08 0.07 0.06 0.05 0.04 0.03 0.04 0.04 0.04 0.04 0.04 0.04 0.04 0.03 0.02 0.02 0.02 0.02 0.03 0.03 0.03 0.02 0.02 0.02 0.02 0.03 0.04 0.05 0.06 0.07 0.08
0.11 0.11 0.10 0.09 0.09 0.09 0.08 0.07 0.08 0.07 0.06 0.06 0.06 0.05 0.05 0.05 0.04 0.04 0.04 0.04 0.04 0.04 0.04 0.04 0.04 0.04 0.04 0.03 0.03 0.03 0.03 0.03 0.03 0.03 0.02 0.03 0.03 0.03
0.11 0.12 0.12 0.12 0.12 0.11 0.11 0.10 0.10 0.09 0.07 0.06 0.06 0.05 0.04 0.04 0.04 0.04 0.05 0.06 0.06 0.06 0.06 0.05 0.04 0.03 0.03 0.03 0.04 0.04 0.03 0.02 0.02 0.02 0.02 0.02 0.02 0.02
0.10 0.10 0.10 0.10 0.10 0.11 0.11 0.11 0.10 0.10 0.09 0.08 0.07 0.06 0.05 0.05 0.05 0.05 0.05 0.06 0.06 0.06 0.06 0.05 0.04 0.04 0.03 0.03 0.03 0.04 0.04 0.04 0.03 0.03 0.02 0.02 0.01 0.01
0.09 0.10 0.10 0.10 0.10 0.11 0.14 0.15 0.14 0.14 0.12 0.11 0.11 0.10 0.09 0.08 0.07 0.06 0.06 0.05 0.05 0.05 0.05 0.05 0.06 0.06 0.06 0.06 0.06 0.07 0.07 0.07 0.06 0.05 0.05 0.04 0.03 0.03
0.09 0.10 0.10 0.10 0.11 0.12 0.14 0.15 0.15 0.14 0.14 0.13 0.12 0.12 0.12 0.10 0.08 0.07 0.07 0.06 0.06 0.05 0.05 0.05 0.05 0.06 0.07 0.07 0.07 0.06 0.06 0.06 0.06 0.05 0.05 0.04 0.05 0.05
0.09 0.10 0.12 0.11 0.12 0.11 0.11 0.14 0.15 0.15 0.14 0.13 0.13 0.13 0.12 0.09 0.07 0.06 0.05 0.04 0.04 0.04 0.04 0.04 0.05 0.05 0.05 0.06 0.06 0.05 0.04 0.03 0.03 0.03 0.03 0.03 0.03 0.03
0.09 0.09 0.10 0.11 0.14 0.14 0.13 0.13 0.14 0.13 0.11 0.10 0.09 0.08 0.08 0.07 0.06 0.04 0.03 0.04 0.04 0.04 0.04 0.04 0.05 0.05 0.06 0.06 0.04 0.04 0.04 0.03 0.03 0.02 0.02 0.01 0.01 0.01
0.06 0.07 0.08 0.11 0.14 0.16 0.15 0.14 0.14 0.12 0.09 0.07 0.05 0.03 0.02 0.02 0.01 0.01 0.01 0.02 0.02 0.03 0.03 0.03 0.04 0.05 0.06 0.06 0.05 0.03 0.03 0.02 0.02 0.02 0.01 0.01 0.01 0.01
0.05 0.07 0.10 0.11 0.12 0.14 0.15 0.15 0.13 0.09 0.06 0.04 0.03 0.02 0.01 0.01 0.01 0.01 0.00 0.01 0.01 0.01 0.02 0.03 0.03 0.03 0.03 0.03 0.02 0.02 0.02 0.02 0.02 0.02 0.02 0.02 0.02 0.02
0.06 0.07 0.08 0.07 0.08 0.08 0.08 0.06 0.04 0.03 0.02 0.02 0.02 0.01 0.01 0.01 0.01 0.01 0.01 0.00 0.00 0.00 0.00 0.00 0.00 0.00 0.00 0.00 0.01 0.01 0.01 0.02 0.02 0.03 0.03 0.03 0.03 0.02
0.05 0.07 0.07 0.06 0.05 0.04 0.03 0.02 0.01 0.01 0.01 0.00 0.01 0.01 0.01 0.01 0.00 0.00 0.00 0.00 0.00 0.00 0.00 0.00 0.00 0.00 0.00 0.00 0.00 0.00 0.00 0.00 0.00 0.01 0.02 0.02 0.02 0.01
0.02 0.01 0.01 0.02 0.01 0.01 0.01 0.00 0.00 0.00 0.00 0.00 0.00 0.00 0.00 0.00 0.00 0.00 0.00 0.00 0.00 0.00 0.00 0.00 0.00 0.00 0.00 0.00 0.00 0.00 0.00 0.00 0.00 0.01 0.01 0.01 0.01 0.01
0.00 0.00 0.00 0.00 0.00 0.00 0.00 0.01 0.01 0.01 0.00 0.00 0.00 0.00 0.00 0.00 0.00 0.00 0.00 0.00 0.00 0.00 0.00 0.00 0.00 0.00 0.00 0.00 0.00 0.00 0.00 0.00 0.00 0.01 0.01 0.01 0.01 0.01
0.00 0.00 0.00 0.00 0.00 0.00 0.00 0.00 0.00 0.00 0.00 0.00 0.00 0.00 0.00 0.00 0.00 0.00 0.00 0.00 0.00 0.00 0.00 0.00 0.00 0.00 0.00 0.00 0.00 0.00 0.00 0.00 0.00 0.00 0.00 0.00 0.00 0.00
0.00 0.00 0.00 0.00 0.00 0.00 0.00 0.00 0.00 0.00 0.00 0.00 0.00 0.00 0.00 0.00 0.00 0.00 0.00 0.00 0.00 0.00 0.00 0.00 0.00 0.00 0.00 0.00 0.00 0.00 0.00 0.00 0.00 0.00 0.00 0.00 0.00 0.01
0.00 0.00 0.00 0.00 0.00 0.00 0.00 0.00 0.00 0.00 0.00 0.00 0.00 0.00 0.00 0.00 0.00 0.00 0.00 0.00 0.00 0.00 0.00 0.00 0.00 0.00 0.00 0.00 0.00 0.00 0.01 0.01 0.00 0.00 0.00 0.00 0.01 0.01
0.00 0.00 0.00 0.00 0.00 0.00 0.00 0.00 0.00 0.00 0.00 0.00 0.00 0.00 0.00 0.00 0.00 0.00 0.00 0.00 0.00 0.00 0.00 0.00 0.00 0.00 0.00 0.00 0.00 0.00 0.01 0.01 0.00 0.00 0.01 0.01 0.01 0.02
0.00 0.00 0.00 0.00 0.00 0.00 0.00 0.00 0.00 0.00 0.00 0.00 0.00 0.00 0.00 0.00 0.00 0.00 0.00 0.00 0.00 0.00 0.00 0.00 0.01 0.01 0.00 0.01 0.01 0.00 0.00 0.01 0.01 0.01 0.02 0.02 0.01 0.01
MSLP
1017.21 1017.50 1017.83 1018.16 1018.47 1018.70 1018.85 1018.90 1018.84 1018.71 1018.51 1018.28 1018.04 1017.81 1017.61 1017.44 1017.32 1017.24 1017.19 1017.17 1017.18 1017.22 1017.28 1017.35 1017.43 1017.51 1017.60 1017.68 1017.77 1017.87 1017.99 1018.12 1018.28 1018.46 1018.65 1018.84 1019.00 1019.14
1016.50 1016.76 1017.05 1017.35 1017.64 1017.88 1018.06 1018.17 1018.20 1018.15 1018.06 1017.93 1017.79 1017.64 1017.51 1017.40 1017.31 1017.24 1017.19 1017.16 1017.14 1017.14 1017.14 1017.16 1017.19 1017.22 1017.27 1017.32 1017.39 1017.48 1017.60 1017.75 1017.92 1018.11 1018.32 1018.52 1018.70 1018.84
1015.70 1015.89 1016.12 1016.37 1016.63 1016.87 1017.08 1017.24 1017.36 1017.44 1017.48 1017.49 1017.49 1017.48 1017.47 1017.46 1017.45 1017.44 1017.42 1017.40 1017.38 1017.34 1017.31 1017.28 1017.26 1017.24 1017.24 1017.25 1017.30 1017.37 1017.48 1017.62 1017.79 1017.99 1018.20 1018.40 1018.58 1018.72
1014.83 1014.94 1015.09 1015.26 1015.47 1015.69 1015.92 1016.14 1016.35 1016.55 1016.75 1016.93 1017.10 1017.26 1017.42 1017.55 1017.66 1017.74 1017.80 1017.82 1017.81 1017.78 1017.73 1017.67 1017.60 1017.54 1017.50 1017.48 1017.49 1017.54 1017.62 1017.75 1017.91 1018.10 1018.29 1018.48 1018.65 1018.78
1013.96 1013.96 1014.01 1014.10 1014.24 1014.43 1014.66 1014.93 1015.23 1015.56 1015.90 1016.25 1016.61 1016.96 1017.29 1017.59 1017.85 1018.06 1018.21 1018.30 1018.35 1018.34 1018.30 1018.23 1018.15 1018.07 1018.00 1017.95 1017.93 1017.95 1018.01 1018.11 1018.24 1018.40 1018.57 1018.74 1018.88 1018.99
1013.17 1013.06 1013.00 1013.00 1013.07 1013.21 1013.44 1013.74 1014.11 1014.54 1015.02 1015.53 1016.06 1016.59 1017.09 1017.56 1017.97 1018.31 1018.57 1018.76 1018.87 1018.92 1018.91 1018.87 1018.80 1018.71 1018.63 1018.57 1018.53 1018.53 1018.56 1018.62 1018.72 1018.85 1018.98 1019.11 1019.23 1019.31
1012.57 1012.36 1012.19 1012.10 1012.10 1012.20 1012.41 1012.73 1013.14 1013.65 1014.23 1014.87 1015.54 1016.21 1016.86 1017.46 1018.00 1018.46 1018.83 1019.11 1019.30 1019.42 1019.47 1019.46 1019.43 1019.37 1019.30 1019.24 1019.20 1019.17 1019.18 1019.22 1019.28 1019.36 1019.45 1019.54 1019.62 1019.68
1012.26 1011.96 1011.72 1011.55 1011.49 1011.55 1011.74 1012.05 1012.50 1013.05 1013.70 1014.41 1015.17 1015.93 1016.67 1017.37 1017.99 1018.54 1018.99 1019.34 1019.60 1019.78 1019.89 1019.94 1019.95 1019.93 1019.90 1019.86 1019.83 1019.80 1019.79 1019.80 1019.82 1019.86 1019.91 1019.96 1020.00 1020.03
1012.31 1011.96 1011.66 1011.45 1011.35 1011.38 1011.55 1011.86 1012.31 1012.88 1013.54 1014.28 1015.07 1015.86 1016.63 1017.36 1018.01 1018.58 1019.07 1019.46 1019.76 1019.99 1020.15 1020.25 1020.32 1020.35 1020.37 1020.36 1020.35 1020.34 1020.32 1020.31 1020.30 1020.29 1020.30 1020.31 1020.31 1020.31
1012.76 1012.38 1012.07 1011.85 1011.74 1011.76 1011.92 1012.22 1012.65 1013.20 1013.85 1014.56 1015.32 1016.08 1016.82 1017.51 1018.13 1018.67 1019.14 1019.52 1019.83 1020.07 1020.26 1020.41 1020.53 1020.61 1020.68 1020.72 1020.74 1020.74 1020.73 1020.70 1020.67 1020.63 1020.60 1020.57 1020.54 1020.50
1013.55 1013.21 1012.92 1012.71 1012.61 1012.64 1012.79 1013.08 1013.49 1014.00 1014.60 1015.25 1015.93 1016.61 1017.26 1017.86 1018.39 1018.86 1019.25 1019.58 1019.86 1020.09 1020.28 1020.46 1020.61 1020.74 1020.85 1020.94 1021.00 1021.03 1021.02 1020.99 1020.94 1020.88 1020.81 1020.74 1020.68 1020.61
1014.62 1014.32 1014.08 1013.92 1013.85 1013.90 1014.06 1014.33 1014.70 1015.16 1015.69 1016.26 1016.83 1017.40 1017.92 1018.40 1018.81 1019.16 1019.46 1019.70 1019.92 1020.11 1020.29 1020.46 1020.63 1020.80 1020.95 1021.08 1021.17 1021.22 1021.23 1021.20 1021.14 1021.06 1020.97 1020.87 1020.77 1020.67
1015.83 1015.60 1015.42 1015.31 1015.29 1015.36 1015.52 1015.77 1016.11 1016.51 1016.96 1017.43 1017.90 1018.34 1018.73 1019.07 1019.35 1019.58 1019.76 1019.91 1020.05 1020.19 1020.33 1020.50 1020.67 1020.85 1021.03 1021.18 1021.30 1021.38 1021.40 1021.38 1021.31 1021.21 1021.10 1020.97 1020.85 1020.72
1017.08 1016.92 1016.80 1016.74 1016.75 1016.84 1017.00 1017.23 1017.53 1017.87 1018.24 1018.62 1018.98 1019.31 1019.58 1019.80 1019.97 1020.08 1020.16 1020.22 1020.29 1020.37 1020.48 1020.62 1020.79 1020.97 1021.16 1021.33 1021.46 1021.54 1021.57 1021.55 1021.47 1021.36 1021.23 1021.09 1020.94 1020.80
1018.25 1018.15 1018.08 1018.07 1018.10 1018.19 1018.34 1018.54 1018.80 1019.08 1019.39 1019.69 1019.96 1020.20 1020.39 1020.52 1020.59 1020.62 1020.63 1020.62 1020.63 1020.67 1020.75 1020.86 1021.02 1021.19 1021.37 1021.54 1021.67 1021.75 1021.77 1021.74 1021.66 1021.54 1021.39 1021.23 1021.08 1020.92
1019.30 1019.24 1019.21 1019.21 1019.25 1019.33 1019.46 1019.63 1019.84 1020.07 1020.32 1020.56 1020.77 1020.95 1021.08 1021.16 1021.19 1021.18 1021.14 1021.10 1021.08 1021.09 1021.15 1021.24 1021.37 1021.53 1021.69 1021.84 1021.95 1022.01 1022.02 1021.96 1021.87 1021.73 1021.58 1021.41 1021.25 1021.08
1020.21 1020.18 1020.17 1020.17 1020.20 1020.26 1020.36 1020.49 1020.65 1020.83 1021.03 1021.23 1021.41 1021.56 1021.67 1021.73 1021.74 1021.72 1021.69 1021.64 1021.62 1021.62 1021.66 1021.74 1021.85 1021.98 1022.11 1022.22 1022.29 1022.32 1022.29 1022.21 1022.09 1021.94 1021.77 1021.61 1021.44 1021.28
1021.01 1021.00 1021.00 1021.00 1021.01 1021.04 1021.09 1021.18 1021.29 1021.44 1021.60 1021.77 1021.93 1022.06 1022.17 1022.24 1022.27 1022.26 1022.24 1022.22 1022.20 1022.21 1022.24 1022.31 1022.39 1022.49 1022.58 1022.64 1022.67 1022.65 1022.58 1022.46 1022.31 1022.14 1021.97 1021.80 1021.63 1021.48
1021.76 1021.77 1021.77 1021.77 1021.76 1021.75 1021.77 1021.82 1021.89 1021.99 1022.12 1022.26 1022.40 1022.54 1022.65 1022.73 1022.78 1022.80 1022.81 1022.80 1022.80 1022.82 1022.85 1022.90 1022.96 1023.01 1023.06 1023.07 1023.04 1022.97 1022.85 1022.70 1022.52 1022.33 1022.14 1021.96 1021.80 1021.66
1022.52 1022.55 1022.55 1022.54 1022.51 1022.49 1022.47 1022.48 1022.52 1022.58 1022.68 1022.79 1022.91 1023.03 1023.13 1023.22 1023.28 1023.32 1023.35 1023.36 1023.37 1023.39 1023.42 1023.45 1023.48 1023.50 1023.50 1023.46 1023.38 1023.26 1023.10 1022.91 1022.70 1022.48 1022.28 1022.10 1021.95 1021.81
1023.29 1023.34 1023.36 1023.35 1023.32 1023.27 1023.24 1023.21 1023.22 1023.25 1023.30 1023.38 1023.47 1023.56 1023.64 1023.71 1023.77 1023.81 1023.83 1023.85 1023.86 1023.88 1023.89 1023.91 1023.91 1023.90 1023.85 1023.78 1023.66 1023.50 1023.30 1023.08 1022.85 1022.62 1022.41 1022.23 1022.07 1021.92
1024.07 1024.15 1024.18 1024.18 1024.14 1024.09 1024.04 1023.99 1023.97 1023.96 1023.98 1024.01 1024.05 1024.10 1024.15 1024.18 1024.21 1024.22 1024.23 1024.23 1024.23 1024.23 1024.23 1024.23 1024.21 1024.18 1024.11 1024.01 1023.86 1023.68 1023.47 1023.23 1022.99 1022.76 1022.54 1022.35 1022.18 1022.03
1024.82 1024.91 1024.96 1024.96 1024.93 1024.88 1024.82 1024.76 1024.71 1024.67 1024.64 1024.62 1024.61 1024.61 1024.60 1024.58 1024.56 1024.53 1024.50 1024.48 1024.46 1024.44 1024.43 1024.41 1024.39 1024.34 1024.26 1024.15 1024.00 1023.82 1023.61 1023.38 1023.14 1022.91 1022.69 1022.49 1022.32 1022.15
Thickness
5731 5730 5729 5729 5727 5726 5725 5723 5717 5714 5715 5720 5723 5726 5726 5726 5725 5724 5723 5722 5721 5720 5718 5716 5714 5713 5710 5708 5706 5704 5702 5700 5698 5696 5694 5693 5691 5689
5729 5728 5727 5726 5725 5724 5723 5721 5719 5716 5713 5716 5718 5721 5721 5722 5721 5720 5719 5718 5717 5715 5714 5712 5710 5709 5707 5704 5702 5700 5698 5696 5694 5692 5690 5688 5686 5684
5726 5725 5724 5723 5722 5721 5719 5718 5716 5714 5711 5713 5714 5715 5715 5715 5715 5714 5713 5712 5711 5710 5709 5707 5705 5703 5702 5699 5697 5696 5694 5691 5689 5687 5685 5682 5680 5678
5723 5722 5721 5720 5718 5717 5715 5714 5713 5711 5708 5706 5707 5707 5707 5708 5707 5707 5706 5705 5704 5703 5702 5700 5698 5696 5695 5693 5690 5689 5687 5685 5683 5680 5678 5676 5673 5671
5719 5718 5717 5715 5713 5712 5711 5710 5708 5707 5704 5701 5700 5699 5699 5700 5699 5698 5697 5697 5696 5695 5694 5692 5690 5689 5687 5685 5683 5681 5679 5677 5675 5672 5670 5667 5665 5663
5715 5714 5712 5711 5710 5708 5706 5705 5703 5700 5697 5695 5692 5691 5690 5690 5689 5687 5687 5687 5686 5686 5685 5683 5681 5680 5678 5676 5675 5673 5670 5668 5666 5664 5661 5658 5656 5653
5708 5707 5707 5706 5705 5703 5701 5698 5696 5693 5690 5687 5685 5683 5681 5680 5679 5679 5677 5677 5676 5674 5674 5672 5670 5669 5667 5666 5664 5663 5660 5658 5656 5653 5651 5648 5646 5643
5701 5700 5699 5698 5697 5696 5694 5692 5690 5687 5684 5681 5677 5675 5673 5672 5671 5670 5668 5667 5665 5664 5662 5660 5658 5657 5656 5654 5652 5651 5649 5646 5644 5642 5639 5636 5634 5632
5694 5693 5692 5690 5689 5687 5685 5683 5680 5678 5676 5673 5669 5666 5664 5662 5661 5660 5658 5655 5652 5650 5649 5646 5646 5644 5642 5641 5640 5638 5636 5634 5631 5629 5626 5623 5621 5619
5686 5684 5683 5681 5680 5678 5676 5672 5669 5666 5665 5663 5660 5657 5654 5652 5650 5649 5646 5643 5640 5637 5636 5633 5631 5629 5629 5627 5625 5623 5621 5619 5617 5615 5612 5609 5607 5605
5676 5674 5673 5671 5669 5668 5666 5661 5657 5654 5652 5650 5647 5645 5642 5641 5639 5637 5634 5632 5628 5625 5622 5620 5618 5616 5614 5612 5610 5608 5606 5605 5603 5600 5598 5595 5594 5591
5665 5663 5661 5660 5658 5657 5655 5651 5646 5641 5639 5637 5634 5632 5629 5627 5625 5623 5621 5619 5616 5612 5608 5607 5605 5603 5601 5598 5595 5593 5592 5590 5587 5585 5583 5581 5579 5577
5655 5651 5648 5647 5646 5644 5641 5638 5633 5630 5627 5624 5620 5617 5615 5613 5611 5609 5607 5605 5602 5598 5595 5593 5591 5589 5586 5584 5582 5579 5577 5575 5573 5571 5569 5566 5564 5562
5643 5639 5635 5634 5633 5630 5627 5623 5621 5618 5615 5611 5607 5603 5600 5598 5596 5594 5592 5590 5587 5584 5581 5579 5577 5574 5572 5570 5569 5566 5563 5560 5558 5556 5554 5553 5551 5549
5631 5627 5624 5623 5621 5617 5613 5611 5608 5605 5602 5598 5594 5589 5586 5584 5583 5581 5579 5577 5574 5571 5568 5565 5562 5560 5558 5556 5553 5551 5549 5546 5543 5541 5540 5538 5537 5535
5620 5616 5613 5610 5608 5604 5600 5597 5594 5591 5588 5584 5580 5577 5574 5572 5570 5567 5565 5563 5561 5558 5554 5551 5549 5546 5544 5541 5539 5536 5534 5532 5530 5528 5526 5525 5523 5521
5609 5606 5602 5598 5594 5590 5587 5583 5580 5577 5574 5571 5567 5565 5562 5559 5556 5553 5550 5548 5546 5542 5540 5537 5535 5533 5530 5527 5526 5524 5521 5519 5517 5515 5513 5513 5511 5508
5599 5593 5588 5584 5581 5577 5574 5570 5567 5563 5560 5557 5554 5552 5549 5546 5543 5540 5537 5534 5531 5527 5524 5522 5520 5520 5519 5516 5510 5509 5508 5506 5504 5502 5501 5501 5500 5497
5586 5580 5575 5571 5568 5564 5561 5558 5554 5550 5547 5544 5541 5538 5535 5533 5530 5526 5523 5520 5517 5513 5510 5507 5505 5505 5505 5504 5499 5494 5493 5493 5492 5491 5490 5488 5487 5485
5572 5567 5563 5559 5555 5552 5548 5545 5541 5538 5535 5531 5528 5525 5522 5519 5516 5513 5510 5506 5503 5500 5498 5496 5493 5490 5488 5487 5485 5484 5481 5480 5480 5480 5479 5477 5476 5474
5559 5555 5551 5547 5543 5539 5535 5532 5528 5525 5521 5518 5515 5512 5509 5507 5504 5500 5497 5492 5490 5489 5487 5485 5481 5478 5476 5475 5475 5475 5472 5469 5468 5467 5468 5468 5468 5467
5547 5543 5539 5534 5531 5527 5523 5520 5516 5513 5510 5507 5503 5500 5497 5494 5492 5488 5486 5483 5480 5478 5476 5474 5472 5471 5469 5468 5467 5466 5464 5462 5460 5459 5458 5456 5456 5457
5535 5531 5527 5523 5519 5515 5512 5508 5505 5502 5498 5495 5492 5489 5486 5484 5481 5478 5476 5473 5471 5469 5467 5466 5465 5463 5461 5459 5458 5457 5456 5455 5453 5453 5451 5449 5447 5446